Regional Weather Roundup
Issued by NWS Bismarck, ND

Home | Current Version | Previous Version | Graphics & Text | Print | Product List | Glossary On
Versions: 1 2 3 4 5 6 7 8 9 10 11 12 13 14 15 16 17 18 19 20 21 22 23 24 25 26 27 28 29 30 31 32 33 34 35 36 37 38 39 40 41 42 43 44 45 46 47 48 49 50
000
ASUS43 KBIS 242110
RWRBIS

NWR BROADCAST TEXT
NATIONAL WEATHER SERVICE BISMARCK ND
400 PM CDT SUN SEP 24 2017

NOTE: "FAIR" INDICATES FEW OR NO CLOUDS BELOW 12,000 FEET WITH NO
SIGNIFICANT WEATHER AND/OR OBSTRUCTIONS TO VISIBILITY.


CITY           SKY/WX    TMP DP  RH WIND       PRES   REMARKS
WILLISTON      CLOUDY    48  41  76 N7        30.11S
MINOT          CLOUDY    51  45  79 NW12      30.05R
MINOT AFB      LGT RAIN  50  44  81 NW10      30.04R
BISMARCK       CLOUDY    52  47  83 N15G24    30.04R
DICKINSON      CLOUDY    47  41  80 NW10      30.07R
GARRISON         N/A     49  44  83 N12       30.05S
HETTINGER ARPT CLOUDY    47  42  83 NW12      30.09R
JAMESTOWN      CLOUDY    51  48  89 N17G24    29.94F
CARRINGTON     CLOUDY    50  48  93 N9G18     30.00R
LINTON         CLOUDY    52  48  87 N8G16     30.02S
TIOGA          CLOUDY    48  45  87 N8        30.10S
$$

CITY           SKY/WX    TMP DP  RH WIND       PRES   REMARKS
GRAND FORKS    LGT RAIN  53  52  96 NW15      29.89R
GRAND FORKS AF LGT RAIN  54  54 100 N14       29.93R
DEVILS LAKE    NOT AVBL
FARGO          LGT RAIN  55  54  96 NW14      29.88R
CANDO          FAIR      48  48 100 N16       30.01F FOG
CAVALIER       LGT RAIN  50  50 100 NW14      29.93R
GWINNER        CLOUDY    54  54 100 NW12      29.92R
ROLLA          LGT RAIN  46  46 100 N15       30.01S
WALHALLA       FAIR     N/A N/A N/A NW13      29.95R
$$

CITY           SKY/WX    TMP DP  RH WIND       PRES   REMARKS
ABERDEEN       CLOUDY    55  51  86 N13       29.95R
MOBRIDGE       CLOUDY    55  48  77 N14G22    29.99R
BUFFALO          N/A     48  41  76 N12       30.02S
RAPID CITY     CLOUDY    52  43  71 N18       30.06F
GLASGOW        CLOUDY    53  37  54 NW6       30.11R
SIDNEY         CLOUDY    47  43  86 SE3       30.12S
WOLF POINT     CLOUDY    56  34  43 N7        30.11R
GLENDIVE       LGT RAIN  46  40  79 S3        30.13R
MILES CITY     CLOUDY    49  38  65 E8        30.12S
BAKER          CLOUDY    43  40  89 N9        30.12R
$$

CITY           SKY/WX    TMP DP  RH WIND       PRES   REMARKS
BILLINGS       PTSUNNY   53  34  48 NE7       30.10S
GREAT FALLS    SUNNY     56  27  32 CALM      30.06F
REGINA         PTSUNNY   54  32  43 N7        30.10R
ESTEVAN        CLOUDY    50  41  71 N5        30.09R
$$





USA.gov is the U.S. government's official web portal to all federal, state and local government web resources and services.